Location: Fishcreek Rd Observing Site
(41.1865°N, 81.4271°W)
Time: 05:08:00
(UTC-05:00)

ISS - Visible Passes

Search period start: 18 November 2017 00:00
Search period end: 28 November 2017 00:00
Orbit: 401 x 407 km, 51.6° (Epoch: 18 November)

Date Brightness Start Highest point End Pass type
(mag) Time Alt. Az. Time Alt. Az. Time Alt. Az.
18 Nov -2.8 05:42:08 32° SSW 05:42:08 32° SSW 05:44:48 10° SSE visible
19 Nov -0.8 04:52:26 13° SE 04:52:26 13° SE 04:52:53 10° SE visible
25 Nov -1.0 19:24:49 10° SW 19:25:26 15° SW 19:25:26 15° SW visible
26 Nov -2.7 18:32:50 10° SSW 18:35:33 30° SE 18:35:33 30° SE visible
27 Nov -1.8 17:41:26 10° S 17:43:33 16° SE 17:45:34 10° E visible
27 Nov -1.7 19:16:30 10° WSW 19:18:14 28° W 19:18:14 28° W visible
